Tracking 22287 objects as of 27-Jan-2021
HD Live streaming from Space Station
objects crossing your sky now

NAVSTAR 27 (USA 84)

Track NAVSTAR 27 (USA 84) now!
NAVSTAR 27 (USA 84) is classified as:


NORAD ID: 22108
Int'l Code: 1992-058A
Perigee: 21,362.9 km
Apogee: 21,443.0 km
Inclination: 54.8 °
Period: 767.7 minutes
Semi major axis: 27773 km
RCS: 3.0849 m2 (large)
Launch date: September 9, 1992
Source: United States (US)
Launch site: AIR FORCE EASTERN TEST RANGE (AFETR)
aabbcc
Your satellite tracking list
Your tracking list is empty




NASA's NSSDC Master Catalog

Two Line Element Set (TLE):
1 22108U 92058A   21026.92608597  .00000104  00000-0  00000+0 0  9998
2 22108  54.8397 233.9851 0014407   8.9649 351.1233  1.87562656206118
Source of the keplerian elements: AFSPC